Temperature
15 15 15 15 15 14 14 14 14 14 14 14 14 14 13 13 13 13 13 13 13 13 13 13 12 12 12 12 12 12 12 12 12 11 11 11 10 10 10 10 10 10 10
15 15 15 14 14 14 14 14 14 14 14 14 14 14 13 13 13 13 13 13 13 13 13 12 12 12 12 12 12 12 12 11 11 11 11 11 10 10 10 10 10 10 10
15 15 14 14 14 14 14 14 14 14 14 14 14 13 13 13 13 13 13 13 13 13 12 12 12 12 12 12 12 12 11 11 11 11 11 11 10 10 10 10 10 10 9
15 14 14 14 14 14 14 14 14 14 13 13 13 13 13 13 13 13 13 13 12 12 12 12 12 12 12 12 12 11 11 11 11 11 11 10 10 10 10 10 9 9 9
14 14 14 14 14 14 13 13 13 13 13 13 13 13 13 13 13 13 12 12 12 12 12 12 12 12 12 12 11 11 11 11 11 11 10 10 10 10 10 9 9 9 9
14 14 14 14 14 14 13 13 13 13 13 13 13 13 13 13 13 13 12 12 12 12 12 12 12 12 12 12 12 11 11 11 11 11 11 10 10 10 10 10 9 9 9
14 14 14 14 13 13 13 13 13 13 13 13 13 13 12 13 13 12 12 12 12 12 11 11 11 11 11 11 11 11 11 11 11 11 11 10 10 10 10 9 9 9 9
14 13 13 13 13 13 13 13 13 13 13 13 13 12 12 12 12 12 12 12 11 11 11 11 11 11 11 11 11 11 10 11 11 10 10 10 10 10 10 9 9 9 9
13 13 13 13 13 13 13 13 13 12 12 12 12 12 12 12 12 12 12 11 11 11 11 11 11 11 11 11 10 10 10 10 10 10 10 10 10 10 9 9 9 8 8
13 13 13 13 13 13 13 12 12 12 12 12 12 12 12 11 12 12 12 11 11 11 11 11 11 11 10 10 10 10 10 10 10 10 10 10 10 9 9 9 9 8 8
13 12 12 12 12 12 12 12 12 12 12 12 11 11 11 11 11 11 11 11 11 11 11 11 11 11 10 10 10 10 10 10 9 9 9 9 9 9 9 9 8 8 8
12 12 12 12 12 12 12 12 12 11 11 11 11 11 11 11 11 11 11 11 11 10 10 10 10 11 10 10 10 10 10 9 9 9 9 9 8 8 8 8 8 8 8
12 12 12 12 12 12 11 11 11 11 11 11 11 10 11 10 10 11 11 11 11 10 10 10 10 10 10 10 10 10 9 9 9 8 8 8 8 8 8 8 8 8 8
12 12 11 11 11 11 11 11 11 10 10 10 10 10 10 10 10 10 10 10 10 10 10 10 10 10 10 10 9 9 9 9 8 8 8 8 8 8 8 8 8 7 7
11 11 11 11 11 10 10 10 10 10 10 10 10 10 10 10 10 10 10 10 10 10 10 10 9 9 9 9 9 9 9 9 8 8 8 8 8 8 7 7 7 7 7
10 10 10 10 10 10 10 10 10 10 10 10 10 10 10 10 10 10 10 10 10 9 9 9 9 9 9 9 9 9 8 8 8 8 8 8 7 7 7 7 7 7 6
10 10 10 10 10 9 9 9 9 10 10 10 10 10 9 9 9 9 9 9 9 9 8 8 8 8 8 8 8 8 8 8 8 8 8 8 7 7 7 7 7 6 6
9 9 9 9 9 9 9 9 9 9 9 9 9 9 9 9 9 9 9 8 8 8 8 8 8 8 8 8 8 8 8 8 8 8 8 7 7 7 7 7 6 6 6
9 9 9 9 9 9 9 9 8 9 8 9 9 9 9 9 8 8 8 8 8 8 8 8 8 8 8 8 8 8 8 8 7 7 7 7 7 7 6 6 6 6 6
8 8 8 8 8 8 8 8 8 8 8 8 8 8 8 8 8 8 8 8 7 7 8 8 8 8 7 7 7 7 7 7 7 7 7 7 7 6 6 6 6 6 6
8 8 8 8 8 8 8 8 8 8 8 8 8 8 8 8 8 8 8 7 7 7 7 7 7 7 7 7 7 7 7 7 7 6 6 6 6 6 6 6 6 6 5
7 7 7 7 7 7 7 7 7 7 7 7 7 7 7 7 7 7 7 7 7 7 7 7 7 7 7 7 7 7 6 6 6 6 6 6 6 6 6 6 6 6 5
6 6 6 7 7 7 7 6 6 6 7 7 7 7 7 7 7 7 7 7 7 7 6 6 6 6 6 7 6 6 6 6 6 6 6 6 6 6 5 5 5 5 5
6 6 6 6 6 6 6 6 6 6 6 6 6 6 6 6 6 6 6 6 6 6 6 6 6 6 6 6 6 6 6 6 6 6 6 5 5 5 5 5 5 5 4
5 6 6 6 6 6 6 6 6 6 6 6 6 6 6 6 6 6 6 6 6 6 6 6 6 6 6 6 6 6 6 6 6 5 5 5 5 5 4 4 4 4 4
5 5 5 5 5 5 5 5 5 5 5 5 5 5 5 5 5 5 5 5 5 5 5 5 5 5 5 5 5 5 6 5 5 5 5 5 4 4 4 4 4 4 4
Wind_Speed
5 5 5 4 4 4 5 5 4 4 5 5 5 5 5 5 5 4 4 4 4 3 3 3 3 2 2 3 3 2 2 1 2 1 2 2 3 2 3 2 2 3 4
4 4 5 4 4 4 4 4 4 5 5 5 5 6 6 5 5 5 5 5 4 4 4 3 3 3 3 3 3 3 3 2 3 3 3 3 3 2 2 2 2 2 3
4 4 4 4 4 4 4 3 4 4 5 5 5 6 6 6 6 6 5 5 5 5 4 4 4 4 4 4 4 3 2 2 2 4 3 3 2 2 2 2 2 2 2
4 4 4 4 4 4 4 3 4 4 5 6 6 6 6 6 6 6 6 5 5 5 4 4 4 4 4 4 4 4 3 3 3 4 3 4 3 3 3 3 2 2 2
5 5 4 4 3 4 4 4 4 4 4 5 5 6 5 5 5 5 5 5 5 5 5 5 4 2 1 2 3 4 4 4 4 4 4 4 4 4 4 3 3 2 3
6 5 4 4 3 3 4 4 3 3 4 5 5 5 6 5 3 4 5 5 5 5 5 4 4 4 4 4 3 3 3 5 5 5 4 5 5 4 4 4 4 3 3
6 5 5 5 4 4 4 4 3 4 4 4 5 5 5 5 5 6 6 5 5 5 5 5 4 4 5 5 6 7 6 5 5 5 5 5 5 5 5 5 5 5 3
6 6 5 5 5 4 4 4 4 4 4 4 5 5 4 4 5 6 6 7 6 5 5 5 5 5 5 4 5 6 6 6 6 6 6 5 4 4 5 5 5 4 3
7 7 6 6 6 5 5 5 5 5 4 4 4 5 5 5 6 7 7 5 5 6 5 5 5 5 5 5 6 6 6 5 4 4 3 2 1 2 4 4 4 5 4
7 7 7 7 7 7 6 5 5 5 5 4 4 5 5 6 6 7 8 5 6 5 5 5 5 5 6 8 7 7 7 6 5 5 5 5 6 6 8 7 5 5 4
6 6 6 7 7 7 6 5 5 5 4 5 5 5 5 5 6 7 8 6 6 6 5 5 5 7 8 9 8 7 6 5 5 5 4 4 5 5 6 7 6 5 5
5 6 6 6 6 6 6 6 6 5 5 5 5 5 4 5 4 5 8 8 6 6 6 5 4 7 8 9 8 6 5 5 5 5 5 5 5 5 5 5 6 6 5
5 6 6 6 6 6 6 6 6 5 5 5 5 5 4 4 4 5 6 8 7 6 5 3 3 6 7 7 8 8 7 6 6 6 6 6 5 4 4 4 5 4 4
5 6 5 5 6 6 6 6 6 6 6 5 5 5 5 4 4 4 5 5 6 6 5 4 4 6 6 6 6 7 7 6 6 6 6 5 4 4 5 5 5 4 4
6 6 6 5 5 5 6 6 6 6 6 6 6 6 5 6 5 4 4 5 5 5 5 5 5 5 5 6 6 6 6 6 7 6 6 6 5 5 5 5 5 5 6
6 6 5 5 5 5 5 5 4 6 5 5 5 6 6 5 3 5 6 5 4 5 5 6 6 7 7 7 7 7 7 7 7 7 7 7 7 6 6 6 6 6 7
7 7 6 6 6 6 6 6 5 5 6 7 7 7 7 5 4 5 6 6 5 6 6 7 7 7 7 7 7 7 8 8 7 7 7 7 7 7 7 7 7 7 7
8 7 7 6 7 7 7 7 6 6 5 5 7 9 8 7 7 6 6 5 4 6 7 7 8 8 7 7 7 7 7 7 7 8 8 8 8 8 8 8 8 8 8
8 6 6 7 7 7 7 7 7 7 7 6 5 5 7 7 7 7 8 6 7 7 7 7 8 8 8 7 7 7 8 7 8 8 8 8 8 8 9 9 9 9 9
7 7 7 7 7 7 7 7 7 7 7 6 6 5 5 5 5 6 7 7 7 7 7 7 7 8 7 7 7 7 8 8 8 8 8 8 8 9 9 10 9 9 9
6 6 7 8 7 8 7 8 8 7 7 7 7 6 6 6 7 7 7 8 8 8 8 7 7 8 8 7 8 9 10 9 9 9 9 9 9 9 9 9 9 9 9
6 6 6 7 7 8 8 8 8 8 8 8 7 6 8 7 7 7 7 8 8 8 7 7 7 7 7 8 8 9 9 10 9 9 9 9 9 9 9 9 9 9 9
6 7 7 7 7 8 8 8 8 8 8 8 7 6 7 7 7 7 7 7 7 7 7 7 8 8 8 8 9 9 9 10 9 9 9 9 9 9 9 10 11 11 11
7 7 8 7 7 7 8 8 8 8 8 8 8 7 7 7 8 8 8 7 6 7 7 7 8 10 11 9 8 9 10 10 9 9 10 9 9 9 9 9 10 11 11
6 7 7 7 7 7 7 7 8 8 8 8 8 8 8 8 8 8 7 7 7 7 8 8 7 9 11 11 10 9 9 9 10 9 9 9 10 10 10 10 9 9 10
6 6 6 6 6 6 6 6 7 7 7 7 7 7 7 7 7 7 6 6 6 6 7 7 8 10 11 10 11 10 8 9 10 11 9 8 9 9 10 9 10 9 10
Wind_Direction
206 206 208 211 216 220 229 230 224 222 219 216 216 221 218 211 208 203 209 200 209 207 204 212 217 218 208 205 211 225 236 223 188 162 151 163 168 155 136 141 137 135 118
207 204 206 208 208 217 226 234 231 226 225 223 222 222 219 217 214 210 208 203 204 207 206 209 212 199 213 214 215 219 213 215 203 177 171 180 182 172 165 165 161 149 137
195 197 201 204 208 216 225 230 232 232 229 223 221 224 220 216 211 212 214 211 211 215 214 212 211 204 208 205 210 212 203 197 199 192 176 168 181 172 174 168 169 174 171
196 200 205 207 213 221 225 228 231 230 233 231 222 221 222 218 214 213 215 214 215 214 217 221 218 214 217 208 206 204 197 195 197 198 187 183 185 183 192 184 183 192 209
201 208 213 217 214 222 229 232 234 233 235 237 232 224 222 224 222 221 218 217 215 211 213 221 225 233 317 241 226 211 203 204 201 204 202 199 198 195 206 203 208 213 214
207 211 214 220 215 220 230 234 233 231 231 226 232 232 224 221 187 215 236 217 220 215 213 214 207 201 197 210 237 251 250 227 213 209 212 215 216 210 210 216 213 219 226
212 212 212 216 215 221 227 226 223 223 224 224 227 229 229 213 177 194 219 225 221 221 221 216 208 205 207 216 204 210 231 254 259 244 229 228 225 210 209 214 217 228 245
216 217 214 217 215 217 223 224 225 224 215 221 227 225 227 207 179 192 201 221 221 222 225 222 212 207 207 219 219 220 220 216 224 236 241 240 236 220 219 222 222 225 236
221 224 221 219 218 217 220 224 226 225 222 225 224 220 220 208 184 190 200 218 222 223 224 226 221 213 180 203 219 222 225 222 209 235 277 279 251 218 217 210 209 217 235
226 228 224 220 219 221 223 223 225 226 226 231 232 228 229 227 183 192 208 218 221 221 219 220 215 221 188 200 218 221 225 223 212 206 216 216 216 205 207 219 221 228 237
233 231 227 222 222 225 225 221 220 223 225 230 234 234 235 232 191 189 209 224 225 224 222 221 211 194 202 210 228 231 230 235 223 220 220 219 217 213 209 219 225 233 241
231 229 229 228 226 222 217 218 221 219 222 230 235 237 238 229 215 198 207 225 244 231 230 228 211 183 202 211 220 221 211 221 226 221 221 222 220 218 216 214 222 230 246
226 225 227 228 225 220 218 214 215 217 223 227 229 233 234 230 214 199 210 220 231 239 240 239 214 190 201 211 212 210 207 216 219 221 226 229 227 225 216 213 220 225 239
230 232 229 225 224 221 218 218 216 216 220 225 228 232 231 226 223 215 217 219 215 230 241 219 198 196 209 220 208 209 217 220 221 226 230 229 220 212 214 214 216 218 229
238 235 231 225 226 228 226 225 226 227 225 226 229 230 228 230 224 214 221 225 223 225 227 222 218 211 212 216 218 218 217 217 219 226 226 223 219 217 220 218 220 222 232
239 237 234 227 225 226 227 231 225 233 229 233 245 244 241 240 209 197 217 236 234 216 220 223 225 224 224 223 221 221 221 222 224 224 224 224 222 221 220 218 221 227 234
240 239 236 234 230 228 227 228 235 230 221 223 224 229 240 238 217 210 214 218 217 202 222 232 232 232 230 229 227 226 227 227 225 224 225 225 223 224 223 223 223 229 236
243 238 236 236 234 233 231 233 235 234 235 238 225 218 222 225 223 217 207 200 219 215 231 236 236 234 233 231 229 230 231 228 224 225 226 225 224 225 226 227 227 229 233
244 241 236 236 236 236 234 235 237 237 238 241 244 224 211 217 217 213 198 216 225 228 233 236 238 237 235 234 233 232 230 229 228 227 227 226 225 226 229 232 232 228 232
245 237 236 238 237 237 236 235 235 236 238 238 238 238 221 213 223 216 213 223 229 233 237 240 239 240 238 236 234 232 232 232 230 230 230 228 227 228 230 231 232 230 231
245 237 228 235 238 239 239 238 238 238 240 241 240 233 222 226 229 226 221 225 232 236 237 242 240 238 238 237 234 232 233 235 233 232 232 231 229 230 232 231 231 232 233
246 246 242 240 239 238 240 240 239 239 240 241 242 233 215 228 235 235 231 231 234 238 239 241 243 238 235 234 234 235 236 236 234 233 233 232 231 231 231 230 230 229 229
247 248 246 244 243 240 236 238 240 240 240 238 237 235 228 232 236 237 237 238 238 240 240 241 245 245 242 242 241 240 239 239 235 232 232 232 232 232 232 231 229 229 229
245 245 245 243 243 243 241 240 240 240 240 239 236 234 232 232 236 239 240 240 242 244 245 246 250 250 248 248 247 245 245 245 243 238 233 235 234 235 233 234 234 231 230
247 247 246 245 244 244 245 245 242 239 239 240 240 239 239 238 238 240 239 240 244 247 251 255 257 257 253 251 250 249 249 245 242 243 237 235 235 234 234 235 234 233 230
251 251 250 248 247 248 249 248 245 243 242 243 244 244 243 242 242 243 242 240 245 249 254 259 261 261 259 255 254 257 253 243 238 239 238 235 233 233 233 234 233 231 231
Height
1542 1543 1545 1546 1546 1547 1548 1549 1549 1550 1550 1550 1551 1551 1551 1552 1552 1552 1552 1552 1553 1553 1553 1553 1553 1553 1553 1554 1554 1554 1554 1555 1555 1554 1554 1554 1554 1554 1553 1553 1553 1552 1552
1540 1541 1542 1543 1544 1545 1545 1546 1546 1547 1547 1548 1548 1549 1549 1550 1550 1551 1551 1551 1551 1551 1552 1552 1552 1552 1552 1552 1552 1552 1553 1553 1554 1553 1553 1553 1553 1553 1552 1552 1552 1552 1552
1537 1538 1539 1540 1541 1542 1543 1543 1544 1544 1545 1545 1545 1546 1547 1547 1548 1548 1549 1549 1549 1549 1550 1550 1550 1550 1550 1550 1550 1551 1551 1551 1551 1552 1552 1551 1551 1551 1551 1551 1551 1551 1550
1535 1536 1537 1538 1538 1539 1540 1540 1540 1541 1542 1542 1543 1543 1544 1545 1545 1546 1546 1547 1547 1547 1547 1547 1548 1548 1549 1549 1549 1549 1549 1549 1550 1550 1550 1550 1550 1550 1550 1550 1550 1549 1549
1532 1533 1534 1535 1535 1536 1536 1537 1537 1538 1538 1539 1540 1540 1541 1541 1542 1543 1544 1544 1544 1544 1545 1545 1545 1546 1546 1546 1547 1547 1547 1548 1548 1548 1548 1548 1548 1548 1548 1548 1548 1547 1547
1529 1530 1531 1532 1532 1533 1533 1533 1534 1534 1535 1535 1536 1537 1537 1538 1538 1539 1540 1541 1541 1542 1542 1542 1542 1543 1543 1544 1544 1544 1545 1546 1546 1546 1546 1546 1546 1546 1546 1546 1546 1546 1546
1526 1527 1528 1528 1529 1529 1530 1530 1530 1530 1531 1532 1533 1533 1534 1534 1535 1536 1536 1537 1538 1539 1539 1539 1539 1540 1540 1541 1541 1541 1542 1542 1543 1543 1544 1544 1544 1543 1543 1543 1543 1543 1543
1523 1524 1524 1525 1525 1526 1526 1526 1527 1527 1528 1528 1529 1529 1530 1530 1531 1532 1533 1534 1535 1535 1536 1536 1536 1537 1537 1538 1538 1538 1539 1539 1539 1540 1540 1541 1541 1541 1540 1541 1540 1540 1540
1519 1520 1520 1521 1521 1522 1522 1523 1524 1524 1525 1525 1526 1526 1526 1527 1527 1528 1529 1531 1531 1532 1532 1532 1533 1533 1533 1534 1535 1535 1536 1536 1536 1536 1537 1537 1537 1537 1537 1537 1537 1537 1537
1515 1516 1517 1517 1518 1518 1519 1520 1520 1521 1521 1522 1522 1522 1523 1523 1524 1524 1526 1527 1528 1528 1529 1529 1529 1529 1530 1530 1531 1532 1532 1533 1533 1533 1533 1533 1533 1533 1534 1534 1534 1534 1534
1512 1512 1513 1513 1514 1514 1515 1516 1516 1517 1517 1518 1518 1519 1519 1519 1520 1521 1522 1523 1524 1524 1525 1525 1525 1525 1526 1526 1527 1528 1529 1529 1529 1529 1529 1529 1529 1529 1530 1530 1530 1530 1531
1507 1508 1508 1509 1509 1510 1511 1511 1512 1513 1513 1514 1514 1515 1515 1515 1516 1516 1517 1519 1520 1520 1521 1521 1522 1522 1522 1522 1523 1524 1524 1525 1525 1525 1525 1525 1525 1525 1525 1526 1526 1526 1526
1503 1503 1504 1504 1505 1505 1506 1507 1508 1508 1509 1509 1510 1510 1510 1511 1512 1512 1513 1514 1515 1516 1517 1517 1518 1518 1518 1519 1519 1519 1520 1520 1520 1520 1520 1521 1521 1521 1521 1521 1521 1521 1521
1498 1499 1500 1500 1500 1501 1502 1502 1503 1504 1504 1505 1505 1505 1506 1507 1507 1508 1508 1509 1510 1511 1512 1512 1513 1513 1514 1514 1514 1515 1515 1515 1516 1516 1516 1516 1516 1516 1516 1516 1516 1516 1516
1494 1495 1495 1495 1495 1496 1496 1497 1498 1499 1500 1500 1501 1501 1501 1502 1502 1503 1504 1505 1505 1506 1507 1508 1508 1508 1508 1509 1509 1509 1510 1510 1511 1511 1511 1511 1511 1511 1511 1511 1511 1511 1511
1490 1490 1490 1491 1491 1491 1491 1492 1492 1493 1494 1495 1496 1497 1497 1498 1498 1499 1500 1500 1501 1501 1502 1502 1502 1503 1503 1503 1503 1504 1504 1505 1505 1506 1506 1506 1506 1506 1506 1506 1506 1506 1506
1485 1485 1486 1486 1486 1486 1486 1487 1487 1488 1489 1489 1490 1491 1491 1492 1492 1493 1494 1495 1495 1496 1496 1496 1496 1497 1497 1498 1498 1498 1498 1499 1499 1500 1500 1500 1500 1501 1501 1500 1500 1500 1500
1480 1480 1480 1481 1481 1481 1482 1482 1482 1482 1483 1483 1484 1485 1485 1486 1487 1487 1488 1489 1489 1489 1489 1489 1490 1491 1491 1492 1492 1492 1492 1493 1493 1493 1494 1494 1494 1495 1495 1495 1495 1495 1495
1474 1474 1475 1475 1475 1476 1477 1477 1478 1478 1478 1478 1479 1479 1480 1480 1481 1481 1482 1482 1482 1482 1483 1483 1484 1484 1485 1485 1486 1486 1486 1486 1487 1487 1487 1488 1488 1488 1488 1489 1489 1489 1489
1468 1468 1469 1469 1470 1470 1471 1472 1472 1473 1473 1473 1473 1474 1474 1474 1474 1475 1475 1475 1476 1476 1477 1477 1477 1478 1478 1479 1479 1479 1479 1480 1480 1480 1480 1481 1481 1481 1482 1482 1482 1482 1482
1462 1462 1463 1463 1464 1464 1465 1466 1466 1467 1467 1467 1468 1468 1469 1469 1469 1469 1469 1469 1469 1470 1470 1470 1470 1471 1471 1472 1472 1472 1473 1473 1473 1473 1473 1474 1474 1474 1474 1475 1475 1475 1475
1456 1457 1457 1457 1458 1458 1459 1460 1460 1461 1461 1462 1462 1462 1462 1463 1463 1463 1463 1463 1463 1463 1464 1464 1463 1464 1464 1464 1465 1465 1465 1465 1465 1466 1466 1467 1467 1467 1467 1467 1467 1468 1468
1450 1450 1451 1451 1452 1452 1453 1453 1454 1454 1455 1455 1455 1456 1456 1456 1456 1456 1456 1457 1457 1457 1457 1457 1456 1457 1457 1457 1458 1458 1458 1458 1458 1458 1459 1459 1459 1460 1460 1460 1460 1460 1460
1444 1444 1445 1445 1446 1446 1446 1447 1447 1448 1448 1449 1449 1449 1449 1449 1450 1450 1450 1450 1450 1450 1450 1450 1450 1450 1450 1450 1450 1450 1451 1451 1451 1451 1451 1451 1452 1452 1452 1452 1452 1452 1453
1438 1438 1439 1439 1440 1440 1440 1440 1441 1441 1442 1442 1442 1443 1443 1443 1443 1443 1443 1443 1443 1443 1443 1443 1442 1442 1443 1443 1443 1443 1443 1443 1443 1443 1443 1443 1443 1444 1444 1445 1445 1445 1445
1433 1433 1433 1433 1434 1434 1434 1434 1434 1435 1435 1435 1436 1436 1436 1437 1436 1437 1436 1436 1436 1436 1436 1436 1435 1435 1435 1435 1435 1435 1435 1435 1435 1435 1435 1435 1435 1435 1436 1437 1437 1437 1438